ATLAS 5 CENTAUR DEB, 46601

Orbit data source: Space-Track

ATLAS 5 CENTAUR DEB, 46601 is space debris in HEO originally from a launch on Wed, 17 Oct 2018 UTC launched from the Air Force Eastern Test Range (AFETR). Debris objects in space refer to the collection of defunct objects orbiting the Earth. Examples of debris include non-operational satellites, rocket bodies, and fragments generated from explosions, collisions, or faulty payload assembly.

Loading next visibility...
Identifier
46601, 2018-079BZ
Orbit
HEO
Last TLE update
2 days ago
Origin
Manufacturer
ULA Decatur
Mission
Spacecraft
Bus & Motor
Unknown
Mass
Unknown
Launch date (UTC)
2018-10-17 (7 years ago)
Launch vehicle
Unknown
Launch site
Air Force Eastern Test Range (AFETR)
Object type
Payload
Rocket body
Debris
Shape & HBR
Unknown
Radar Cross Section
RCS unknown

Expand to show TLE details & history

TLE from 2 days ago
0 ATLAS 5 CENTAUR DEB
1 46601U 18079BZ  25130.84883959 -.00000070  00000-0  00000-0 0  9995
2 46601  12.5682  71.2671 4519796 251.9647  54.9824  1.85739805 34029
Epoch: 2025-05-10T20:22Z
Definitive object data (Epoch: 2025-05-10T20:22:19.74Z)
Latitude
0.00002°
Longitude
-103.31313°
Altitude
19,479.633 km
Speed
4.071 km/s
True Right ascension
04h 44m 36s
True Declination
0° 00' 00"
Sunlit
Object was in daylight at TLE epoch
Visualization TLE readout
Latitude
1.91607°
Longitude
67.88077°
Altitude
14,469.01 km
Speed
4.897 km/s
Apparent Right ascension
16h 21m 38s
Apparent Declination
-7° 31' 04"
Sunlit
Object is in daylight
Visualization observer readout
Local Sidereal Time
05:14:08
Azimuth
23.444° NE
Elevation
-55.535°
Doppler factor
1
Orbital elements
Apogee altitude
34,215.503 km
Perigee altitude
8,943.113 km
Semi-major axis
27,957.445 km
Eccentricity
0.4519796
Inclination
12.5682°
RAAN
71.2671°
Arg. of periapsis
251.9647°
True anomaly
108.08772°
Mean anomaly
54.9824°
Eccentric anomaly
80.52568°
Mean motion
0.4643 °/min
BSTAR
Unknown
Orbital period
775.36 mins
Loading maneuver chart data...
Loading SW <> Apogee altitude chart data...

ATLAS 5 CENTAUR DEB Visibility forecast

Observer location: undefined°, undefined°

Span
Click to sort rows by Start time (UTC) header in descending order
Start Az.
Max El. time (UTC)
Max El. Az.
Max El.
End time (UTC)
End Az.
655 mins2025-05-12 23:58:06.536Z246.768° WSW2025-05-13 03:07:06.536Z248.084° W27.068°2025-05-13 10:53:06.536Z151.78° SSE
|